Simultaneous Nadir Overpasses (SNOs) Predictions

Prediction of SNOs between AQUA and METOP-B Satellite Orbit:

Table of predicted SNOs for the next 14.0 days since TLE Epoch: 12/2/2023
Index Date (AQUA) Time (AQUA) Lat,Lon (AQUA) SZA (AQUA ) Date (METOP-B) Time (METOP-B) Lat,Lon (METOP-B) SZA (METOP-B ) Distance(km) Time Diff (sec)
1 12/04/2023 06:25:14 -75.08, -99.86 82.80 12/04/2023 06:24:58 -75.06, -99.86 82.81 1.76 16
2 12/04/2023 07:14:39 75.13, 67.65 97.26 12/04/2023 07:15:37 75.11, 67.60 97.24 3.10 58
3 12/06/2023 22:37:39 -75.06, 17.13 82.48 12/06/2023 22:36:33 -75.04, 17.18 82.50 2.21 66
4 12/06/2023 23:27:04 75.12,-175.38 97.58 12/06/2023 23:27:12 75.08,-175.37 97.55 3.56 8
5 12/07/2023 00:16:36 -75.57, -8.98 81.96 12/07/2023 00:17:43 -75.59, -6.54 81.95 67.66 67
6 12/09/2023 15:39:25 75.08, -58.33 97.83 12/09/2023 15:38:45 75.09, -58.26 97.85 2.43 40
7 12/09/2023 16:28:49 -75.13, 109.18 82.12 12/09/2023 16:29:26 -75.12, 109.16 82.13 1.15 37
8 12/12/2023 07:51:37 74.67, 59.70 97.65 12/12/2023 07:50:29 74.59, 57.47 97.60 66.18 68
9 12/12/2023 08:41:09 -75.12,-133.84 81.89 12/12/2023 08:41:00 -75.11,-133.77 81.90 2.05 9
10 12/12/2023 09:30:33 75.14, 33.77 98.13 12/12/2023 09:31:39 75.15, 33.66 98.14 3.18 66
11 12/15/2023 00:53:26 -75.09, -16.79 81.75 12/15/2023 00:52:34 -75.08, -16.76 81.75 1.31 52
12 12/15/2023 01:42:50 75.11, 150.80 98.28 12/15/2023 01:43:13 75.12, 150.67 98.29 3.74 23



Historial Predications of SNOs between AQUA and METOP-B
